TimeCEST,TemperatureF,Dew PointF,Humidity,Sea Level PressureIn,VisibilityMPH,Wind Direction,Wind SpeedMPH,Gust SpeedMPH,PrecipitationIn,Events,Conditions,WindDirDegrees,DateUTC
2:00 AM,56,52,80,30.18,,Calm,Calm,,,,,,2013-10-25 00:00:00
4:45 AM,53.6,50.0,88,30.18,-9999.0,ESE,2.3,-,N/A,,Clear,120,2013-10-25 02:45:00
5:15 AM,51.8,50.0,94,30.18,-9999.0,Calm,Calm,-,N/A,,Clear,0,2013-10-25 03:15:00
5:45 AM,51.8,50.0,94,30.18,-9999.0,East,1.2,-,N/A,,Clear,100,2013-10-25 03:45:00
6:15 AM,51.8,48.2,88,30.18,-9999.0,ESE,2.3,-,N/A,,Clear,110,2013-10-25 04:15:00
6:45 AM,51.8,50.0,94,30.18,4.3,East,1.2,-,N/A,,Scattered Clouds,80,2013-10-25 04:45:00
7:00 AM,-9999,-9999,N/A,-9999,-9999.0,Variable,3.5,-,N/A,,Clear,0,2013-10-25 05:00:00
7:15 AM,51.8,50.0,94,30.18,3.1,NE,2.3,-,N/A,,Partly Cloudy,50,2013-10-25 05:15:00
7:22 AM,50.0,50.0,100,30.18,3.1,ENE,2.3,-,N/A,,Partly Cloudy,70,2013-10-25 05:22:00
7:45 AM,50.0,48.2,94,30.18,2.5,SE,2.3,-,N/A,,Partly Cloudy,130,2013-10-25 05:45:00
8:00 AM,50,48,89,30.19,2,SE,2.2,,,,Mist,130,2013-10-25 06:00:00
8:00 AM,-9999,-9999,N/A,-9999,2.5,Variable,3.5,-,N/A,,Mist,0,2013-10-25 06:00:00
8:15 AM,50.0,50.0,100,30.18,2.5,ENE,1.2,-,N/A,,Partly Cloudy,60,2013-10-25 06:15:00
8:45 AM,53.6,51.8,94,30.21,3.7,Calm,Calm,-,N/A,,Partly Cloudy,0,2013-10-25 06:45:00
9:15 AM,59.0,51.8,77,30.21,4.3,Calm,Calm,-,N/A,,Partly Cloudy,0,2013-10-25 07:15:00
9:45 AM,60.8,53.6,77,30.21,4.3,SSE,1.2,-,N/A,,Partly Cloudy,160,2013-10-25 07:45:00
10:00 AM,-9999,-9999,N/A,-9999,4.3,Variable,2.3,-,N/A,,Unknown,0,2013-10-25 08:00:00
10:15 AM,64.4,53.6,68,30.21,-9999.0,Calm,Calm,-,N/A,,Clear,0,2013-10-25 08:15:00
10:45 AM,66.2,50.0,56,30.21,-9999.0,West,3.5,-,N/A,,Clear,260,2013-10-25 08:45:00
11:15 AM,68.0,50.0,52,30.21,-9999.0,West,4.6,-,N/A,,Clear,270,2013-10-25 09:15:00
11:45 AM,69.8,50.0,49,30.21,-9999.0,West,2.3,-,N/A,,Clear,260,2013-10-25 09:45:00
12:15 PM,69.8,50.0,49,30.21,-9999.0,West,3.5,-,N/A,,Clear,280,2013-10-25 10:15:00
12:45 PM,71.6,48.2,43,30.18,-9999.0,WSW,2.3,-,N/A,,Clear,250,2013-10-25 10:45:00
1:00 PM,-9999,-9999,N/A,-9999,-9999.0,Variable,3.5,-,N/A,,Clear,0,2013-10-25 11:00:00
1:15 PM,73.4,48.2,41,30.18,-9999.0,NNW,2.3,-,N/A,,Clear,340,2013-10-25 11:15:00
1:45 PM,73.4,50.0,44,30.18,-9999.0,WSW,3.5,-,N/A,,Clear,250,2013-10-25 11:45:00
2:00 PM,74,50,32,30.17,16,WSW,4.5,,,,Partly Cloudy,250,2013-10-25 12:00:00
2:15 PM,75.2,50.0,41,30.18,-9999.0,SW,2.3,-,N/A,,Clear,230,2013-10-25 12:15:00
2:45 PM,75.2,50.0,41,30.15,-9999.0,SW,1.2,-,N/A,,Clear,230,2013-10-25 12:45:00
3:15 PM,75.2,50.0,41,30.15,-9999.0,SW,2.3,-,N/A,,Clear,220,2013-10-25 13:15:00
3:45 PM,75.2,50.0,41,30.15,-9999.0,SSE,1.2,-,N/A,,Clear,160,2013-10-25 13:45:00
4:00 PM,-9999,-9999,N/A,-9999,3.1,Variable,3.5,-,N/A,,Clear,0,2013-10-25 14:00:00
4:15 PM,73.4,51.8,47,30.15,-9999.0,SW,2.3,-,N/A,,Clear,220,2013-10-25 14:15:00
4:45 PM,73.4,50.0,44,30.15,-9999.0,Calm,Calm,-,N/A,,Clear,0,2013-10-25 14:45:00
5:15 PM,71.6,50.0,46,30.15,-9999.0,SW,2.3,-,N/A,,Clear,220,2013-10-25 15:15:00
5:45 PM,68.0,50.0,52,30.15,-9999.0,Calm,Calm,-,N/A,,Clear,0,2013-10-25 15:45:00
6:15 PM,64.4,50.0,59,30.15,-9999.0,Calm,Calm,-,N/A,,Clear,0,2013-10-25 16:15:00
6:45 PM,62.6,50.0,63,30.15,-9999.0,Calm,Calm,-,N/A,,Clear,0,2013-10-25 16:45:00
7:15 PM,60.8,51.8,72,30.15,-9999.0,ENE,2.3,-,N/A,,Clear,70,2013-10-25 17:15:00
7:45 PM,60.8,51.8,72,30.15,-9999.0,ENE,2.3,-,N/A,,Clear,60,2013-10-25 17:45:00
8:00 PM,60,51,64,30.16,12,ENE,2.2,,,,Partly Cloudy,60,2013-10-25 18:00:00
8:15 PM,59.0,50.0,72,30.15,-9999.0,ENE,2.3,-,N/A,,Clear,60,2013-10-25 18:15:00
8:45 PM,57.2,50.0,77,30.18,-9999.0,East,3.5,-,N/A,,Clear,90,2013-10-25 18:45:00
9:00 PM,-9999,-9999,N/A,-9999,-9999.0,North,-9999.0,-,N/A,,Unknown,0,2013-10-25 19:00:00